Location: Unspecified
(49.9820°N, 20.4363°E)
Time: 14:37:09
(UTC+02:00)

ISS - Pass Details

Date: 17 May 2018
Orbit: 402 x 407 km, 51.6° (Epoch: 22 May)

Event Time Altitude Azimuth Distance (km) Brightness Sun altitude
Exits shadow 02:39:16 10° 279° (W) 1,444 -1.2 -15.5°
Maximum altitude 02:42:29 62° 1° (N) 457 -3.4 -15.2°
Drops below altitude 10° 02:45:43 10° 84° (E) 1,458 -0.5 -14.9°
Sets 02:47:49 0° 87° (E) 2,318 0.5 -14.7°
